Theta_e
325 323 323 321 320 318 316 313 309 304 302 297 293 292 291 290 290 292 294 302 311 316 321 322 323 322 323 323 324 324 323 321 320 319 320 324 324 324 325 326 326 327 328
323 322 319 318 317 316 315 312 309 304 301 295 293 292 291 290 290 291 294 295 306 315 318 323 323 323 323 324 324 324 324 321 319 317 317 320 322 323 322 321 321 322 323
322 321 320 318 318 315 313 309 306 304 300 294 292 291 290 290 290 290 292 295 298 307 313 320 321 323 324 325 325 325 326 322 318 317 315 317 319 320 319 318 317 318 320
323 321 319 317 316 313 312 309 305 301 300 297 292 290 289 289 290 290 290 293 296 299 305 312 315 318 320 325 325 328 327 323 318 318 314 317 319 318 317 314 316 317 316
315 318 317 315 314 313 309 307 303 302 301 298 295 292 289 288 289 290 289 290 292 297 298 303 308 308 312 318 323 327 326 323 321 318 315 317 316 315 315 314 314 315 316
307 310 310 310 310 309 306 304 302 298 296 296 294 292 289 288 288 288 288 290 290 292 293 295 296 298 305 313 318 324 326 324 322 319 316 316 316 316 315 315 314 313 315
298 300 304 304 305 304 303 303 299 298 298 293 293 293 291 290 288 288 288 288 288 289 290 290 292 293 295 306 312 318 324 324 323 320 317 316 315 315 314 314 313 313 313
292 294 296 298 299 300 300 299 297 296 295 293 292 289 290 289 287 287 286 287 287 287 288 289 288 289 290 292 297 310 316 322 324 323 319 316 315 314 314 314 314 314 314
288 289 290 291 293 295 295 296 296 296 294 294 291 291 289 287 286 286 286 286 286 286 287 287 288 288 289 289 294 299 307 313 320 323 322 318 316 314 314 313 313 314 313
285 285 286 287 288 288 288 290 294 294 293 291 292 291 289 288 287 286 286 287 285 286 286 286 286 287 288 288 292 296 300 305 309 314 318 320 317 315 313 313 313 313 313
283 284 284 284 284 285 285 286 287 288 291 290 291 290 289 288 288 286 285 286 287 286 286 286 286 286 287 287 287 291 298 302 305 309 312 317 317 315 313 312 312 312 312
281 281 282 282 282 282 282 283 283 284 285 287 288 288 289 288 288 287 286 288 288 288 285 285 285 286 286 286 289 294 297 300 303 306 310 314 315 313 312 312 312 312 312
279 279 280 280 280 280 281 281 281 281 281 282 283 285 287 288 289 288 287 287 287 288 285 284 285 285 287 285 286 291 294 298 301 304 309 312 313 312 311 310 310 310 311
278 278 278 278 278 279 279 279 279 279 279 279 279 280 283 285 286 287 286 284 283 286 286 286 283 284 285 285 287 291 290 295 298 301 307 311 311 311 309 309 309 308 309
279 278 278 277 278 278 278 278 277 277 277 278 278 279 280 281 283 284 285 284 283 282 283 286 284 285 284 285 286 286 287 291 296 299 304 309 309 308 308 308 308 308 308
278 278 278 277 277 277 277 277 276 277 276 277 278 277 278 279 280 281 282 282 283 283 281 284 286 285 286 286 286 286 286 290 293 295 300 304 307 306 306 306 306 306 306
277 278 278 277 277 277 276 276 275 276 276 276 276 277 277 278 278 279 280 281 281 281 280 282 285 285 285 286 286 285 286 286 287 293 295 300 303 305 305 305 304 304 304
277 277 277 277 276 276 276 275 275 275 275 275 276 276 276 279 277 278 278 278 279 280 279 278 281 282 282 283 285 284 285 286 285 290 293 296 299 302 303 303 303 303 303
276 275 275 274 274 274 274 275 275 275 276 276 276 276 276 276 276 277 277 277 278 280 280 279 279 282 282 281 282 282 283 284 285 288 292 293 295 299 301 302 301 300 300
273 273 273 273 273 273 273 274 274 274 274 274 275 275 276 276 276 276 276 277 278 278 279 278 279 280 281 282 279 280 281 281 283 284 287 289 291 294 298 300 299 298 298
272 272 271 271 271 271 273 273 273 273 273 273 273 273 274 275 277 278 277 277 277 276 277 277 278 279 279 279 280 281 280 281 282 283 283 283 285 287 290 296 296 296 297
270 270 269 269 268 270 273 275 275 273 272 271 270 271 272 272 274 276 277 278 279 277 275 276 278 278 279 280 281 281 281 281 279 281 282 283 283 283 286 289 294 297 297
268 267 267 267 267 267 272 274 274 272 271 270 270 270 270 271 271 271 273 275 275 277 279 277 275 276 276 279 280 280 281 281 281 283 281 280 281 281 284 286 292 295 296
266 265 265 265 266 267 271 272 273 271 270 269 269 269 269 270 270 271 271 271 272 273 274 274 274 274 275 276 276 278 279 280 282 284 281 279 280 281 282 283 290 293 295
264 263 265 263 263 263 269 271 271 270 269 269 269 270 270 269 272 274 272 271 272 273 276 277 278 279 280 280 281 278 276 277 277 280 284 281 282 281 280 282 283 290 293
264 264 264 263 262 262 267 270 271 269 267 268 269 270 272 272 275 276 273 271 270 271 272 271 272 274 276 275 278 277 276 273 275 277 283 280 281 277 274 279 282 283 286
Wind_Speed
3 3 4 3 3 3 3 3 3 2 1 1 1 1 2 2 3 2 2 9 10 11 11 10 7 6 5 5 5 4 4 3 2 4 7 9 7 4 5 5 6 7 8
3 5 3 4 4 4 3 3 3 3 2 2 3 3 3 3 3 3 3 4 10 10 11 12 10 8 7 7 7 7 7 3 1 3 5 8 7 5 2 3 5 6 6
2 3 3 3 4 3 4 3 3 3 1 1 3 3 3 5 4 5 4 3 5 8 9 9 9 10 10 7 9 9 8 5 2 1 2 7 7 5 6 6 6 7 7
4 3 2 3 1 2 3 2 2 2 3 3 2 3 3 3 4 5 4 4 4 4 6 9 9 9 10 12 13 9 7 6 3 4 3 7 5 2 4 3 4 5 5
13 8 6 5 4 2 1 1 1 1 1 2 3 3 3 4 5 3 5 5 5 5 4 8 10 10 10 11 13 14 9 9 8 5 4 7 3 1 1 5 5 3 5
14 10 9 9 7 4 4 3 4 3 3 3 2 4 4 4 4 5 6 4 5 5 5 5 5 5 12 13 13 14 14 11 11 10 7 9 9 10 9 8 7 6 7
11 11 8 9 8 7 6 5 3 3 2 3 4 3 3 5 6 5 3 4 5 5 5 4 3 3 5 14 14 14 14 15 10 11 9 11 10 11 10 10 9 9 7
13 12 10 9 9 7 9 8 5 3 2 2 2 2 4 5 4 2 2 4 6 3 5 5 5 5 5 4 8 16 15 17 17 14 12 12 13 12 11 11 11 10 11
13 12 12 10 10 9 7 7 6 6 3 3 2 2 3 2 4 2 2 2 4 4 5 6 6 6 6 5 8 10 16 17 18 17 17 15 15 14 13 13 13 12 10
13 13 12 12 11 8 10 8 7 5 3 3 2 1 2 1 4 6 2 3 2 5 5 4 5 6 7 5 9 12 14 17 17 17 17 17 17 15 14 15 13 13 12
11 12 11 11 10 8 9 10 10 9 5 3 4 4 1 2 4 4 8 4 4 4 4 5 5 5 6 6 6 9 16 17 17 16 18 18 19 17 16 15 15 15 14
7 10 9 9 8 9 9 7 7 8 8 6 4 4 3 3 3 3 5 8 10 5 4 4 5 5 5 5 9 15 17 19 19 18 17 18 17 18 17 16 16 16 16
4 8 8 8 6 6 7 7 7 6 7 6 6 5 3 3 4 4 6 9 7 3 4 4 5 4 5 5 7 12 15 20 20 20 17 18 19 19 18 17 17 18 18
4 5 5 6 6 6 5 6 4 4 6 5 7 5 5 5 4 4 3 5 11 8 4 6 3 5 5 5 7 13 8 18 22 22 19 17 18 19 19 18 19 20 20
3 5 5 6 6 6 6 6 4 5 5 4 5 5 4 5 4 4 4 3 4 8 11 2 3 4 4 4 7 5 6 12 21 23 21 20 19 20 21 21 21 21 22
6 6 6 6 5 5 5 5 5 5 5 5 5 6 6 5 6 4 5 4 4 6 10 3 6 4 5 5 7 7 8 15 17 21 22 22 22 26 24 23 23 23 24
5 6 6 6 6 6 6 5 6 7 8 8 6 6 9 6 6 5 5 6 6 5 10 10 8 5 5 8 8 5 6 7 7 18 23 24 25 24 24 24 24 24 25
5 5 5 5 5 6 6 7 10 8 8 10 10 9 10 7 9 7 6 9 8 7 8 14 11 10 7 6 8 8 7 6 7 14 21 25 26 27 26 26 25 24 23
4 5 5 6 7 8 8 8 9 9 10 11 12 12 12 11 11 9 8 9 9 8 8 9 11 9 9 4 6 6 7 9 6 14 21 24 24 26 27 27 27 25 24
4 5 5 6 7 8 10 8 10 12 12 12 13 13 14 14 13 12 11 11 10 9 9 10 11 10 9 7 4 6 9 4 8 7 14 16 17 23 28 29 29 26 25
4 5 7 6 7 8 8 12 12 13 13 14 13 13 13 16 25 23 14 13 13 11 10 13 12 11 10 7 8 5 8 6 7 7 7 7 8 10 13 25 23 25 26
4 5 6 7 8 8 18 19 18 13 14 14 14 13 13 15 17 24 26 30 25 15 13 11 12 13 14 11 9 8 10 9 11 4 8 10 7 10 10 11 22 28 29
5 6 6 7 9 9 18 22 23 12 13 13 14 14 14 11 14 14 20 26 24 26 27 18 16 14 14 12 12 12 11 11 13 7 6 9 5 11 8 11 25 28 30
5 7 7 8 9 9 21 22 23 13 12 13 13 14 14 15 14 16 16 16 15 14 14 13 15 17 16 14 16 16 16 18 14 11 5 14 5 10 6 8 23 27 29
5 6 7 7 8 11 20 22 20 12 12 13 13 14 14 15 21 26 17 15 13 12 15 25 29 31 29 29 24 13 13 13 14 15 11 12 11 8 6 9 10 27 28
7 7 8 8 10 12 19 21 18 10 11 10 12 14 20 21 26 26 16 14 14 13 14 14 14 19 22 18 27 17 12 14 15 16 11 10 11 4 4 6 10 10 12
Wind_Direction
175 174 178 167 190 175 187 175 171 198 234 273 316 280 296 305 309 305 309 321 324 317 310 290 276 276 274 275 264 236 258 127 8 10 333 360 350 17 29 57 49 46 32
187 183 182 190 183 185 190 179 169 198 258 315 310 313 301 299 295 293 293 312 316 319 317 299 279 275 273 258 259 247 240 155 279 339 341 323 337 16 320 301 354 343 12
268 158 167 190 208 186 175 170 164 158 186 317 291 316 322 313 307 299 295 287 298 306 314 334 330 306 283 271 260 254 205 186 217 236 289 287 290 304 306 15 340 281 290
341 310 299 268 260 178 180 193 168 199 183 203 264 286 282 286 291 291 297 293 290 290 298 304 322 323 321 299 275 258 209 202 236 231 286 268 285 310 291 270 309 329 290
26 26 21 13 5 354 359 155 56 311 202 210 256 260 270 272 264 269 270 278 283 285 296 300 310 318 311 300 293 275 220 209 218 230 284 271 244 266 264 258 270 306 303
30 34 33 29 18 19 25 23 26 22 357 328 312 273 251 250 259 254 250 249 246 258 275 294 307 309 310 303 301 300 253 236 218 206 239 262 266 263 260 254 249 250 264
43 42 40 33 27 36 29 19 26 12 342 360 320 320 293 251 254 255 274 272 276 278 276 268 275 293 304 302 302 302 283 267 222 225 220 257 251 257 256 251 249 247 242
29 36 40 39 36 41 39 30 22 353 345 18 9 243 332 329 343 339 275 260 260 273 283 282 282 279 279 282 285 290 286 282 271 225 227 238 245 250 248 250 251 247 246
34 34 37 36 33 31 31 27 25 29 353 351 9 310 323 299 316 309 338 308 283 262 258 255 259 257 259 262 275 280 283 285 287 284 246 213 240 243 246 250 248 248 250
39 37 37 39 38 35 29 11 12 16 355 339 326 145 229 277 307 315 325 317 299 275 277 269 254 254 244 241 250 255 266 275 279 283 282 249 225 236 243 246 247 245 242
37 32 32 34 39 36 30 27 16 17 22 354 342 329 303 208 221 256 302 325 306 262 251 247 256 258 249 240 240 246 257 263 267 273 276 273 221 223 236 243 245 244 241
33 30 29 31 31 29 24 16 16 24 15 6 356 343 328 320 319 293 286 298 288 275 271 267 253 254 248 242 247 246 245 252 258 262 269 253 216 217 223 237 245 245 242
22 17 18 24 24 17 19 14 16 13 11 6 356 337 322 307 298 286 287 291 283 288 281 241 247 246 259 241 244 245 249 252 253 255 260 234 208 212 222 233 241 246 244
32 15 14 19 15 15 15 8 3 356 354 348 340 330 316 312 305 296 275 296 302 289 273 253 263 239 244 249 254 257 250 251 253 249 248 228 216 215 221 230 240 244 243
33 20 17 14 7 5 5 0 353 339 331 316 305 302 299 294 291 286 284 258 256 300 299 261 279 265 272 267 260 244 231 244 255 257 246 234 222 225 231 232 236 240 241
15 11 9 7 1 358 351 351 335 324 322 316 311 310 301 296 296 280 270 270 251 253 277 335 274 252 266 273 261 247 240 243 249 252 251 243 234 234 234 234 236 236 236
12 11 2 357 353 349 344 335 323 315 318 309 301 289 297 287 292 290 289 281 272 250 266 284 284 284 255 262 273 253 246 240 247 245 245 245 241 236 231 230 232 232 233
2 346 345 345 337 336 334 327 321 316 305 306 306 302 296 295 292 285 274 279 275 268 270 279 283 287 261 245 254 267 263 240 235 244 246 246 244 239 232 228 227 225 227
346 352 359 351 341 335 328 318 304 304 304 303 304 302 302 302 295 289 280 284 283 278 273 274 279 279 283 264 268 255 256 261 244 239 249 252 247 242 241 232 227 223 222
359 358 354 344 339 332 323 315 323 317 310 304 303 302 301 299 295 294 287 283 281 279 280 278 279 280 275 281 247 276 272 233 257 240 242 240 240 242 238 235 230 224 218
8 351 341 338 335 329 327 327 318 310 308 306 307 304 300 300 301 298 295 290 286 280 278 282 281 277 273 273 267 267 266 271 251 234 247 241 232 239 243 239 235 224 220
352 341 339 330 327 325 322 318 317 311 308 305 304 304 298 292 293 297 296 294 290 286 276 274 274 267 271 272 271 269 270 275 286 195 228 249 216 232 231 232 227 221 219
336 335 330 325 317 313 316 318 316 308 303 301 302 302 300 298 299 294 291 290 293 292 285 287 284 278 289 293 295 281 271 258 264 257 222 255 205 239 228 232 233 229 220
338 325 317 308 306 310 314 315 313 310 302 296 293 294 292 291 287 290 286 281 277 272 273 269 269 277 276 279 273 275 279 282 279 263 202 260 211 239 219 227 229 232 229
317 301 302 311 303 299 308 310 314 303 298 291 289 285 283 287 287 288 284 282 280 280 279 280 282 284 286 289 288 281 267 275 260 253 238 249 250 253 210 227 221 230 229
301 309 302 299 290 291 301 306 311 297 294 290 283 283 282 286 289 292 287 283 278 272 268 266 266 269 271 271 270 269 284 273 267 277 247 234 242 213 266 211 213 212 223